GFSSW_925_temp_117.txt.gz
Temp
13 13 13 13 12 12 12 12 12 12 12 12 11 10 11 12 14 14 13 19 19 19 20 20 20 20 19 18 19 17 15 15 18 20 21 22 21 23 24 23 23 25 26 25 26
13 13 12 12 13 13 13 13 13 12 12 11 11 11 11 12 13 12 18 18 18 19 20 20 19 19 17 19 18 17 14 16 18 20 20 21 20 21 23 22 23 23 23 26 27
12 12 12 12 12 12 12 12 12 12 12 11 11 11 11 12 12 17 19 18 18 18 19 19 19 19 19 19 19 17 17 17 20 20 20 19 20 21 22 22 23 22 22 22 24
11 10 10 11 11 11 11 11 11 12 12 11 10 11 11 12 18 18 18 18 17 17 18 19 18 18 18 18 19 18 18 19 19 19 19 19 19 20 20 21 22 21 21 21 21
10 10 10 10 10 10 10 10 10 10 11 10 10 10 11 10 12 17 17 17 16 17 18 18 18 18 18 18 18 18 18 18 17 17 18 19 18 19 19 20 20 20 21 20 20
9 9 9 9 10 10 9 8 9 9 10 10 10 10 10 10 16 16 15 16 16 16 17 17 18 18 17 17 17 17 17 16 17 17 17 18 19 19 20 20 20 20 20 20 20
9 9 9 9 9 9 8 8 8 8 9 9 10 9 9 10 16 15 15 14 15 15 16 18 18 18 17 16 17 17 16 16 17 17 18 17 17 18 19 18 18 19 19 19 19
8 9 9 9 9 9 8 8 8 8 9 10 10 9 9 13 13 14 15 14 15 15 15 17 17 17 17 17 15 16 15 15 17 19 18 19 17 18 18 19 19 17 17 18 19
8 9 8 9 9 9 8 9 9 9 9 9 8 9 9 13 12 16 15 13 15 16 16 17 18 16 17 15 12 13 13 14 16 18 17 17 17 19 19 19 18 16 17 16 18
8 8 8 8 9 9 9 9 9 9 8 8 8 8 10 14 16 16 15 14 16 16 17 16 14 13 12 12 11 12 12 13 15 16 15 15 16 18 17 17 16 16 16 15 15
8 8 8 8 8 8 9 8 9 8 7 9 10 10 13 15 16 17 16 15 16 16 14 14 13 12 14 13 14 14 14 13 14 15 15 15 16 17 17 15 16 17 17 15 13
8 8 8 8 8 8 9 7 9 10 9 9 10 10 12 13 13 16 17 16 14 14 14 14 12 14 14 13 13 13 13 13 14 15 15 14 15 16 16 15 16 16 15 14 13
8 8 8 8 8 8 8 10 10 11 8 10 10 10 11 11 11 13 15 15 15 14 13 13 15 15 15 14 14 13 13 13 14 14 14 13 13 15 17 16 16 16 16 15 12
7 8 8 8 8 8 8 11 11 10 6 11 11 11 12 12 11 14 16 15 15 14 14 13 15 15 14 14 14 13 14 14 14 13 11 14 12 15 14 14 14 12 11 11 10
7 7 8 7 9 9 10 11 10 10 9 15 13 14 13 13 16 14 16 15 13 13 13 13 15 13 13 14 14 14 13 14 13 12 11 11 11 11 12 12 11 11 10 8 8
7 7 6 6 7 9 10 10 10 7 9 15 14 13 12 14 15 15 14 16 15 14 14 13 15 14 14 15 14 12 13 12 10 10 8 12 12 10 10 9 10 11 10 9 8
7 7 5 7 7 10 9 9 9 7 14 15 14 13 14 13 15 15 13 13 12 12 11 14 13 14 14 13 12 12 13 12 11 10 10 13 11 10 8 7 8 8 6 6 5
7 7 7 7 9 10 9 9 8 11 11 15 16 14 14 14 15 15 13 12 13 14 12 12 13 12 13 15 12 11 12 12 11 10 10 12 10 10 8 7 7 6 5 4 3
6 6 6 8 8 9 9 9 9 10 14 14 15 15 14 15 15 15 13 14 14 13 13 12 13 14 13 14 13 11 10 12 11 10 9 10 10 9 8 7 6 6 5 4 3
5 6 6 8 8 8 8 10 10 13 14 14 13 14 14 14 14 13 14 15 15 14 15 14 13 15 15 14 13 12 12 10 10 11 11 11 11 8 8 7 7 6 5 3 3
5 5 6 7 7 8 8 9 11 13 14 13 12 13 13 14 14 13 14 15 15 14 14 13 13 13 14 13 12 12 11 11 10 9 10 11 9 7 8 8 7 6 4 3 2
5 6 6 6 7 6 8 9 11 12 13 12 13 12 12 13 13 13 13 14 13 13 12 12 11 12 13 14 14 13 13 11 8 9 10 7 8 10 9 9 7 7 5 3 2
5 5 5 4 7 6 8 9 10 11 11 11 12 12 12 11 12 12 13 12 12 12 11 10 10 10 11 11 11 11 13 13 11 11 10 9 10 9 10 9 8 6 5 4 3
3 4 3 4 5 6 7 7 9 9 10 10 11 12 11 11 11 12 12 12 12 11 11 11 10 11 12 11 11 10 12 13 12 10 10 10 10 9 9 7 5 4 3 2 2
3 4 5 4 5 6 7 7 7 8 10 10 11 10 10 10 11 11 11 11 11 11 10 9 9 9 10 10 9 9 11 12 13 12 11 11 10 10 8 6 5 4 3 2 2
3 4 4 4 6 5 6 7 7 8 10 8 8 10 9 10 9 11 11 10 10 10 9 8 8 8 9 11 12 11 13 13 13 13 12 11 9 8 6 5 4 3 2 2 1
3 3 4 5 4 5 6 7 8 8 9 10 9 8 9 8 8 10 10 9 10 10 8 8 7 8 10 10 10 10 10 13 9 9 9 9 8 6 5 4 3 2 2 -0 -0

GFSSW_925_temp_120.txt.gz
Temp
14 14 13 13 13 12 12 13 13 13 13 13 12 11 11 12 14 14 13 18 18 19 19 20 20 20 19 18 18 16 15 15 18 19 20 21 20 21 22 22 22 23 25 24 26
13 13 13 13 13 12 13 12 12 12 12 12 12 11 11 12 13 12 17 17 17 19 19 19 18 18 16 18 17 16 14 16 17 19 20 19 20 20 21 20 21 22 22 24 24
12 12 12 12 12 12 12 12 12 12 12 12 11 11 11 12 12 17 17 17 17 18 18 18 18 18 18 18 18 16 15 16 19 19 18 18 18 20 21 20 22 20 21 20 22
11 11 10 10 10 11 11 11 10 10 12 11 10 10 11 12 18 17 17 17 17 17 18 18 17 18 17 18 17 17 17 18 18 18 17 17 18 19 19 20 21 19 19 18 19
10 10 10 10 10 10 10 10 10 9 10 10 10 10 11 10 12 16 16 16 17 17 17 17 18 17 17 17 17 17 17 16 16 16 16 17 17 18 18 18 18 18 19 18 18
9 9 9 9 9 9 9 9 8 9 9 9 10 10 10 10 16 15 15 16 16 16 17 17 17 17 17 16 16 17 16 15 15 16 16 16 16 19 19 18 18 18 18 18 18
9 9 9 9 9 9 9 7 7 8 8 9 10 10 8 10 15 15 15 15 15 15 15 17 17 17 17 16 16 16 15 15 16 17 17 17 17 17 18 17 17 17 17 16 16
8 8 8 9 9 9 8 8 8 8 8 9 10 10 8 13 13 15 15 14 15 15 15 16 16 17 17 17 15 15 14 14 16 16 17 17 15 18 16 18 18 17 16 17 16
8 8 8 8 9 9 9 8 8 9 9 9 9 10 9 13 12 15 14 14 13 14 15 16 17 15 16 13 12 12 13 13 14 16 16 15 15 17 17 18 16 17 14 14 14
8 8 8 8 8 9 9 9 9 9 9 9 8 9 10 14 15 15 13 15 15 13 15 15 12 13 11 11 12 12 12 12 13 15 14 14 14 16 15 15 15 16 14 13 10
8 8 8 8 8 8 9 8 8 8 8 8 9 10 11 14 15 15 14 14 15 15 13 13 12 11 13 12 13 13 13 13 12 13 13 13 14 14 15 14 13 14 13 13 9
7 7 7 7 8 8 8 7 9 10 9 8 9 9 11 11 12 15 15 15 14 13 13 12 11 12 13 12 13 13 12 12 12 14 14 13 13 14 14 14 12 10 11 10 9
7 7 7 7 7 7 8 9 10 10 8 10 9 9 10 10 11 11 14 14 14 13 12 11 14 14 14 13 13 12 12 12 12 13 13 12 12 13 13 12 11 9 9 9 7
7 7 7 8 7 7 8 8 10 10 5 10 10 10 11 11 11 12 15 15 14 13 12 13 14 14 13 13 13 12 13 13 13 12 11 13 11 12 11 10 12 9 8 8 7
7 7 7 7 7 8 9 9 9 10 9 13 11 12 12 11 14 13 15 15 13 13 13 13 14 13 12 14 13 12 14 13 12 11 10 11 10 11 10 10 11 8 7 6 5
7 7 7 6 7 8 9 10 9 5 9 12 12 11 11 12 14 13 13 15 13 14 13 13 14 13 13 13 13 12 13 12 9 9 10 11 11 9 9 8 8 6 6 5 4
7 7 6 6 7 9 8 9 8 6 14 13 12 12 12 12 13 13 12 12 12 11 11 13 13 13 14 14 12 13 13 11 10 10 11 12 10 10 8 8 7 6 5 4 4
7 6 6 6 8 8 8 9 8 11 11 14 14 13 12 13 14 13 11 11 12 13 10 11 12 12 12 14 12 10 12 13 12 10 10 11 9 11 8 7 7 6 5 4 3
6 5 5 6 8 7 8 9 8 10 12 13 15 14 13 14 15 14 11 11 12 12 13 11 12 13 12 13 13 11 12 12 11 10 10 10 10 8 8 7 7 6 5 4 3
5 5 6 7 7 7 8 9 10 11 13 13 13 13 12 13 13 13 12 13 14 13 14 13 13 14 13 13 12 12 11 10 10 11 11 11 10 9 8 7 6 5 5 4 3
5 5 6 7 7 7 8 9 10 12 12 13 12 12 13 14 12 12 13 14 14 13 13 12 13 13 12 12 11 11 11 11 11 10 10 10 9 6 8 7 6 5 5 4 3
5 5 5 6 7 7 7 9 11 11 12 11 12 12 12 13 13 14 13 13 13 12 12 12 11 12 13 13 12 12 12 11 11 10 9 6 8 9 9 8 7 6 5 4 3
5 5 4 5 7 7 7 9 10 10 10 11 11 11 12 12 12 12 13 13 12 12 11 11 10 11 9 11 11 12 12 13 12 10 11 9 10 10 9 9 8 6 5 3 2
4 4 3 5 6 7 8 7 8 10 10 10 10 11 11 11 11 11 12 12 12 12 11 11 10 11 12 12 10 9 10 11 12 10 11 11 9 8 9 9 6 4 2 1 1
4 4 5 4 5 6 8 8 8 9 10 10 9 9 9 9 10 9 10 11 11 11 10 9 11 9 10 10 10 10 10 11 11 11 10 10 10 10 9 7 4 2 2 2 1
3 4 4 4 6 6 6 6 7 8 9 8 8 9 9 9 10 10 10 9 9 9 9 8 8 8 9 10 10 10 10 9 10 10 9 9 9 10 7 4 3 2 2 1 1
2 3 3 3 4 5 6 7 8 8 8 9 9 8 8 9 9 9 8 8 10 9 7 8 8 8 9 9 8 10 10 10 10 9 10 10 10 6 4 4 3 2 2 1 0

GFSSW_925_temp_123.txt.gz
Temp
13 14 13 13 13 13 13 13 13 13 14 13 13 12 12 13 15 14 14 17 17 18 19 20 20 20 19 20 19 18 22 22 22 21 22 22 22 22 23 23 23 24 25 25 24
13 13 13 12 12 12 13 13 13 13 14 13 13 12 11 13 13 12 16 16 17 18 19 19 19 19 20 20 20 21 21 21 20 20 21 20 21 21 22 23 22 23 24 23 22
13 13 12 12 12 12 12 13 12 13 13 13 12 11 11 13 13 17 16 16 17 18 18 19 18 19 20 19 19 17 21 19 20 20 19 20 21 21 22 22 23 22 22 22 21
12 12 12 12 11 11 11 11 11 11 13 12 12 11 11 13 18 16 16 17 17 18 18 18 19 19 19 19 18 19 19 19 19 19 19 20 20 20 21 22 21 21 21 21 22
11 10 10 10 10 10 10 10 9 10 11 10 10 10 12 12 15 15 16 16 17 18 17 18 18 18 19 18 18 18 18 18 18 18 18 18 19 19 20 21 20 21 21 21 21
10 10 10 10 9 10 10 9 9 10 9 10 10 10 10 12 15 15 15 15 16 17 16 17 18 18 18 17 18 17 17 18 18 19 18 18 19 19 19 19 20 20 20 20 20
9 9 9 9 9 10 9 8 9 8 9 9 9 10 9 13 14 14 14 14 15 15 16 16 17 18 17 17 17 17 17 18 18 18 18 18 19 19 19 19 20 20 20 20 18
8 8 8 8 9 9 9 8 8 8 9 9 10 10 11 13 13 14 14 14 15 15 15 16 17 17 17 17 17 17 16 18 18 18 17 19 18 19 19 20 20 20 20 19 13
8 8 8 8 8 9 8 8 8 9 9 9 9 9 11 13 12 14 14 14 12 14 15 16 16 16 16 16 16 15 18 16 17 17 18 18 17 19 19 19 18 19 18 16 12
8 8 8 8 8 8 8 8 8 9 9 9 8 9 11 15 14 14 13 14 14 14 15 15 15 16 13 16 18 17 16 15 16 18 17 16 17 17 18 17 15 14 15 12 10
8 8 7 8 8 8 8 8 8 8 8 10 10 10 12 13 13 14 14 14 15 15 15 14 15 16 16 15 15 15 15 15 15 16 15 16 16 17 16 13 12 13 12 10 9
7 7 7 8 8 7 7 7 9 9 9 9 9 9 10 11 13 15 14 16 15 15 14 14 15 15 14 14 15 15 15 15 15 16 16 16 16 15 13 11 9 9 9 9 8
7 7 7 7 7 7 8 8 9 10 9 10 9 9 11 11 12 13 14 14 14 14 14 14 16 14 15 14 14 14 14 14 15 15 15 15 15 14 13 12 10 9 9 8 7
7 7 7 7 7 7 8 8 9 9 9 11 9 10 10 11 12 13 14 16 14 15 13 14 15 14 14 15 14 14 14 15 14 15 15 15 15 14 12 12 10 8 6 5 5
7 7 7 7 7 7 8 8 9 9 12 12 10 11 11 12 14 12 14 15 14 14 15 15 14 14 14 15 14 15 14 14 14 14 13 14 14 13 12 12 8 7 6 5 5
7 7 7 7 6 8 8 9 9 9 11 12 11 11 10 12 13 13 14 15 14 14 14 14 14 15 15 13 14 14 14 13 12 13 13 15 15 14 12 11 8 7 6 6 5
7 7 7 7 7 8 8 9 9 9 14 13 12 11 12 12 13 13 13 14 14 13 13 13 14 14 14 14 13 15 15 14 13 12 14 13 13 16 10 10 10 8 6 5 5
7 7 6 7 8 8 8 9 8 12 12 13 13 12 13 13 13 13 13 13 13 13 12 13 14 14 14 16 15 13 15 14 13 13 14 12 14 14 10 9 9 8 7 6 4
7 5 5 7 7 7 8 9 10 10 13 13 14 13 13 14 14 14 13 13 14 14 15 13 14 13 13 13 15 13 13 15 14 11 12 15 13 10 9 8 8 7 7 5 4
5 5 5 8 6 6 7 10 10 11 13 13 14 13 13 13 14 14 13 14 14 14 14 14 14 14 13 14 13 14 14 12 12 13 13 14 14 14 8 7 7 7 6 4 4
5 5 6 7 6 6 7 9 11 11 12 13 12 12 13 13 13 13 14 14 14 13 14 14 15 14 13 14 14 13 13 13 13 12 14 14 15 11 10 10 8 7 6 4 4
4 5 5 5 6 6 7 9 11 11 12 12 12 12 12 13 13 13 13 14 13 13 13 14 13 14 14 13 14 14 14 14 12 12 10 10 14 11 12 11 9 7 6 5 4
5 4 4 5 6 6 8 8 10 10 11 11 11 12 12 12 12 12 13 13 13 13 13 12 11 13 13 12 12 13 13 13 12 11 12 12 14 10 10 10 8 7 6 5 3
4 5 4 4 6 8 7 8 8 10 10 10 10 11 11 11 11 12 11 12 12 12 11 12 11 13 13 12 12 11 12 13 12 12 13 14 14 11 10 9 9 8 6 4 3
4 5 5 5 6 7 8 8 8 8 10 10 10 10 10 10 11 11 12 12 11 11 10 11 12 11 13 13 13 13 13 13 12 13 12 14 13 14 10 9 9 6 4 3 2
3 4 4 5 7 7 7 8 8 9 9 8 8 9 9 10 11 11 11 11 12 10 9 9 11 11 12 11 12 11 12 12 12 13 13 13 12 12 11 9 5 4 4 3 2
1 3 5 5 6 6 6 8 8 9 9 10 9 9 9 9 9 10 9 10 11 10 9 8 9 9 11 11 10 10 11 12 12 12 12 11 13 9 7 6 5 4 4 3 2

GFSSW_925_temp_126.txt.gz
Temp
14 14 14 14 13 13 13 13 14 14 14 14 14 14 14 16 17 16 20 18 18 18 19 21 22 23 24 25 25 26 28 29 28 27 27 26 26 27 27 27 27 28 27 26 25
13 13 13 13 13 13 13 13 13 14 14 14 14 14 14 15 14 18 17 17 17 18 20 23 24 24 26 25 26 27 27 28 25 26 26 25 25 26 26 27 26 27 27 25 25
13 13 13 13 13 13 13 13 13 14 14 14 14 14 14 15 18 21 16 17 17 18 20 21 22 24 25 25 25 25 27 25 25 24 24 25 25 25 25 26 26 24 25 25 25
12 12 13 12 12 12 12 12 12 13 14 14 13 13 14 14 22 18 16 17 17 18 20 22 23 24 24 24 24 24 24 24 24 23 23 24 24 24 25 25 25 24 24 25 25
12 11 11 11 10 10 10 10 11 12 13 12 12 11 13 18 21 16 17 17 17 19 21 23 23 23 24 23 23 23 24 23 23 23 23 24 23 24 24 24 24 24 25 25 24
10 10 10 10 10 10 10 10 10 11 11 10 10 10 14 18 16 15 15 16 18 19 20 22 23 23 23 22 22 21 22 22 23 23 23 22 24 22 23 23 24 24 24 24 21
9 9 9 9 9 9 9 9 9 9 10 9 10 11 14 18 16 15 15 16 16 18 21 20 21 22 22 21 21 21 21 23 23 23 22 22 23 23 23 23 24 24 23 22 18
9 8 8 9 9 9 9 9 9 9 9 9 10 11 16 14 14 14 15 16 15 16 18 18 19 21 21 21 21 21 21 24 22 22 21 23 25 24 23 23 23 23 22 19 15
9 8 8 8 8 9 9 9 9 9 9 9 11 12 17 14 15 15 15 18 16 16 17 18 20 21 20 21 22 21 24 22 23 22 22 22 23 24 23 23 21 21 20 17 15
8 8 8 8 8 8 8 8 9 9 9 10 10 13 16 18 16 15 14 16 17 18 18 19 20 21 21 22 24 25 22 22 23 22 21 22 22 22 23 21 19 19 17 16 14
8 8 8 8 8 8 8 9 12 12 11 17 16 16 16 15 14 16 16 17 18 20 19 19 20 22 24 22 22 21 21 22 23 22 19 21 21 22 21 19 18 17 15 14 12
8 8 8 8 8 7 8 12 13 11 14 15 14 14 14 13 17 17 16 19 19 20 19 18 19 23 20 19 19 20 20 21 22 20 19 21 21 20 18 15 14 14 13 12 11
8 8 8 8 7 7 9 11 10 11 14 16 15 14 15 14 18 19 17 19 19 20 19 21 21 19 19 19 19 20 19 20 19 20 20 19 21 18 17 14 13 12 12 11 10
7 7 8 7 7 9 9 10 10 10 14 17 13 14 14 16 16 18 18 20 18 20 19 20 21 19 19 19 19 20 20 19 18 18 20 19 20 20 19 16 15 13 12 11 10
7 7 7 7 9 9 10 10 9 11 15 16 13 13 14 17 17 16 17 18 19 18 18 20 18 18 19 19 19 19 18 18 18 18 18 20 18 22 19 18 16 14 11 10 9
7 7 7 6 7 9 8 9 10 12 14 15 14 13 13 14 16 16 16 18 19 18 17 20 18 19 20 18 18 18 17 18 17 18 17 20 19 23 19 19 17 14 12 11 8
7 7 7 6 8 8 8 10 11 13 17 16 15 14 15 15 15 16 15 15 17 16 16 18 17 18 18 18 17 18 18 18 18 18 19 18 18 21 19 17 16 14 13 10 8
7 7 6 7 8 8 8 10 10 16 17 16 16 15 16 16 16 15 16 16 17 18 19 17 17 18 18 19 19 18 19 19 17 19 20 17 17 19 17 15 14 14 12 9 7
7 6 6 6 7 7 8 9 14 16 16 16 16 16 16 16 17 16 16 17 18 17 19 18 18 18 17 18 19 17 16 19 18 18 16 19 21 14 13 11 12 12 10 8 6
6 6 6 7 7 6 7 10 14 14 15 16 16 17 17 17 17 17 17 18 17 18 19 18 18 18 16 17 18 17 19 15 16 15 16 20 20 19 12 10 11 11 9 7 6
5 5 6 6 6 6 7 10 13 14 14 15 16 15 17 16 17 17 18 17 17 17 18 19 18 17 16 17 18 16 16 16 17 17 17 18 19 16 14 14 12 12 10 7 7
5 6 6 6 6 6 7 11 13 14 14 13 13 14 16 16 16 16 17 18 16 17 16 17 17 17 17 19 19 20 18 18 15 15 15 15 17 18 17 17 15 14 10 7 8
4 6 5 7 7 7 10 10 12 13 13 13 13 14 14 14 14 16 16 15 15 16 16 16 15 15 17 16 17 17 18 18 17 16 14 14 17 16 16 16 15 13 8 8 7
5 6 4 5 10 10 9 10 11 12 12 12 12 13 13 13 14 14 15 14 14 15 12 14 16 15 16 16 15 12 14 16 15 13 15 16 18 19 16 15 13 10 8 7 7
4 5 6 6 6 10 11 11 11 10 11 12 11 11 12 12 13 13 14 15 15 14 14 14 14 15 16 17 16 15 15 16 16 15 14 16 17 19 19 17 14 11 9 7 7
3 5 6 7 9 9 10 10 11 11 12 11 11 12 12 11 13 13 13 13 13 14 14 14 13 14 14 16 16 15 16 17 17 17 17 17 17 18 19 17 14 11 8 7 6
1 5 8 8 8 8 9 10 11 12 11 12 12 11 11 12 13 13 13 13 13 13 13 12 12 12 12 15 14 12 15 16 17 17 17 16 18 19 17 15 12 10 9 7 6

GFSSW_925_temp_129.txt.gz
Temp
14 14 14 14 14 14 14 14 14 14 14 15 15 15 16 16 17 20 23 21 20 19 20 23 25 27 28 30 29 30 30 32 32 31 30 29 30 31 30 30 30 30 30 28 27
14 14 14 14 14 13 14 13 13 14 14 15 15 15 15 16 15 21 20 19 18 19 21 25 27 28 29 29 30 29 31 32 30 30 30 29 29 29 29 30 29 30 30 27 27
14 14 13 13 13 13 13 13 13 14 14 14 14 15 15 16 21 25 19 18 18 19 22 24 26 27 29 29 30 30 30 29 29 28 29 29 29 29 29 28 29 27 27 27 27
13 13 13 13 13 12 12 12 12 13 13 14 14 14 15 15 23 22 18 18 19 20 23 25 26 27 27 28 29 27 29 28 29 27 27 28 29 28 28 28 28 27 27 28 27
12 12 12 12 11 11 11 11 11 12 13 13 12 13 15 21 23 19 19 18 19 21 24 26 26 27 27 28 28 27 29 27 27 26 26 27 26 27 28 28 27 27 27 27 25
11 11 11 11 10 10 10 10 11 10 11 11 11 12 15 19 21 19 19 19 21 22 24 25 26 27 26 26 26 27 26 26 27 27 27 26 27 26 27 27 26 27 27 25 22
9 9 10 10 10 10 10 10 10 10 10 10 10 12 17 20 20 20 18 20 21 22 24 24 24 25 26 25 26 25 24 27 27 27 26 25 26 26 27 26 26 27 26 23 20
9 9 9 9 9 9 9 10 10 9 10 10 10 14 17 20 19 18 19 20 19 20 21 22 23 25 25 25 24 24 26 26 29 26 25 25 27 28 26 26 26 26 25 22 19
8 8 9 9 9 9 9 9 9 9 9 10 11 15 19 16 18 19 19 20 20 20 21 21 22 24 24 24 25 25 27 27 26 26 27 25 27 28 27 26 25 25 24 21 19
9 8 8 8 9 9 9 9 9 9 10 12 14 15 18 21 20 19 19 20 21 21 21 22 23 23 24 25 25 27 26 27 27 26 25 25 25 27 27 26 24 24 22 20 18
8 8 8 8 8 9 9 11 14 15 14 18 21 20 20 20 17 19 19 20 21 21 21 22 22 23 25 26 26 26 25 26 28 28 24 24 25 26 27 25 23 23 20 19 17
8 8 8 8 8 9 9 14 17 14 16 18 18 20 19 18 20 21 19 21 21 21 23 21 22 25 27 25 24 24 24 25 26 26 23 24 24 26 25 23 21 21 19 18 17
8 8 8 8 8 8 11 13 14 13 16 19 20 19 20 18 20 22 20 22 21 22 23 23 25 25 25 23 23 24 24 24 24 25 24 24 24 25 23 20 19 18 18 16 16
8 8 8 7 7 11 11 11 12 11 14 19 18 18 19 19 19 22 21 22 22 22 24 23 25 23 23 23 24 23 25 23 22 22 22 23 22 25 23 20 19 19 18 17 16
7 7 8 8 11 11 12 11 11 12 12 21 18 17 19 18 22 21 22 22 21 22 23 23 23 22 22 23 24 23 22 21 22 22 22 23 23 25 26 22 21 20 18 16 14
7 7 7 8 8 10 10 11 11 11 12 19 18 16 16 17 20 19 21 21 22 22 22 23 23 22 23 23 23 22 20 21 21 22 20 22 23 24 26 23 23 21 18 16 12
7 7 7 8 10 10 9 10 10 11 19 20 18 18 18 17 18 18 18 18 19 18 20 20 21 22 22 20 21 20 21 20 20 20 20 23 22 24 24 23 23 20 18 16 13
7 7 7 8 9 9 9 10 9 14 18 20 19 18 18 19 19 18 18 18 19 20 21 19 19 21 21 21 21 20 21 21 20 21 23 22 20 22 23 21 20 19 18 15 11
6 6 7 8 8 8 9 8 11 15 20 19 19 18 18 20 20 18 18 19 20 20 20 20 21 23 21 21 22 21 19 22 20 21 19 21 24 21 20 18 17 17 16 13 10
6 6 7 8 7 7 8 9 13 16 19 19 18 19 19 19 18 19 19 20 20 20 21 21 20 21 20 21 21 21 21 18 18 17 18 21 22 23 17 16 16 16 15 11 10
6 5 5 8 7 7 8 10 13 17 17 17 17 18 19 19 19 18 20 20 21 20 20 21 20 19 19 19 20 20 19 19 20 19 18 19 21 21 18 18 16 16 15 11 9
4 5 5 6 6 7 8 12 13 15 16 15 15 17 18 18 19 19 19 20 19 20 19 20 19 19 19 21 21 22 20 19 17 17 18 19 19 22 21 20 19 18 16 12 10
3 4 6 6 6 8 11 12 13 14 15 15 15 16 16 17 17 18 19 17 17 18 18 19 17 17 18 20 20 19 21 20 19 19 18 17 18 21 20 20 20 20 17 12 11
2 5 5 5 7 10 10 11 11 14 14 14 15 16 15 15 17 17 17 16 16 17 13 15 17 17 17 18 16 15 18 19 19 16 16 17 19 21 18 19 20 19 17 12 11
2 5 6 6 6 8 12 13 13 12 12 12 11 14 15 14 15 15 16 15 15 14 15 13 14 17 18 19 14 14 14 16 16 17 13 17 17 19 20 20 18 18 15 12 10
4 5 5 9 9 9 12 13 13 14 14 12 11 12 13 12 14 14 14 14 14 15 16 14 12 14 14 15 18 17 18 18 18 18 17 18 18 20 21 21 21 18 14 12 11
0 3 7 8 9 10 11 13 14 14 14 14 13 13 13 13 14 15 15 13 13 14 14 14 13 13 13 16 16 14 17 18 18 19 19 18 19 21 21 21 19 18 15 12 11

GFSSW_925_temp_132.txt.gz
Temp
14 14 14 14 15 14 14 14 14 14 14 15 15 16 16 16 17 18 22 22 21 21 22 22 24 26 28 29 31 31 28 30 33 33 31 31 31 31 31 31 31 31 29 28 28
14 14 14 13 14 14 14 14 14 14 14 15 15 15 16 16 15 19 21 21 21 21 21 25 27 29 28 29 30 29 29 31 31 31 31 30 30 31 30 30 30 30 29 28 28
14 14 13 13 13 13 13 14 14 14 14 14 15 15 16 16 19 23 20 20 20 20 20 24 27 28 28 30 30 30 28 30 30 27 30 30 30 30 29 29 30 29 28 28 28
14 14 13 13 13 13 13 13 13 14 14 14 14 15 16 15 22 21 21 21 20 21 23 26 27 27 28 29 30 28 30 30 30 28 28 29 30 29 29 29 29 28 28 28 27
14 14 12 13 13 13 13 12 12 13 14 14 14 14 15 20 22 20 20 20 21 22 24 27 27 28 27 29 30 28 29 30 29 28 27 28 27 27 28 29 28 28 27 26 24
14 13 12 11 12 11 11 11 11 12 13 13 13 13 15 18 23 22 20 21 22 23 25 26 27 28 27 28 28 29 28 29 28 28 28 27 27 27 28 28 28 27 27 23 22
11 10 9 10 10 10 10 10 11 11 12 13 12 11 16 18 22 22 20 21 22 23 25 26 26 26 27 27 28 27 26 27 27 28 27 27 25 26 28 27 27 27 26 22 21
9 8 9 9 9 9 10 10 10 11 11 11 12 12 16 20 21 21 22 21 22 22 23 24 24 25 25 27 26 25 26 25 29 28 27 26 26 29 28 27 27 27 26 21 19
11 10 9 9 8 9 9 10 10 11 11 11 11 14 18 19 20 21 21 22 22 22 22 23 23 24 25 24 24 25 25 27 28 28 27 26 27 27 28 27 26 27 26 22 19
10 10 11 10 9 9 9 10 10 11 11 12 14 16 18 21 22 21 21 21 23 22 22 22 22 23 24 24 23 26 26 27 28 28 27 26 26 28 28 28 27 26 24 21 19
9 8 8 9 9 9 10 10 11 12 13 17 19 19 22 22 20 20 21 21 22 22 20 22 21 22 24 25 26 27 27 27 29 29 26 25 26 26 27 28 25 24 23 21 19
8 8 8 8 8 9 9 11 15 14 15 18 17 19 21 21 19 21 21 20 21 20 21 22 21 24 26 27 26 26 25 25 27 28 28 26 25 26 27 28 25 24 21 20 18
8 8 8 8 7 7 9 12 14 13 14 17 19 20 20 21 20 22 21 21 21 20 22 22 24 25 25 26 25 25 25 25 26 27 26 24 24 25 26 27 23 22 22 19 18
8 8 7 7 7 9 10 12 13 13 12 16 20 20 21 21 19 21 22 22 22 22 22 23 25 25 25 24 25 23 26 26 25 24 23 26 22 26 24 23 21 20 19 18 17
8 7 7 7 9 10 12 11 12 13 12 21 21 21 22 20 22 21 22 21 21 22 23 23 24 24 23 24 25 24 25 24 24 23 23 23 23 24 26 22 21 20 19 18 17
8 7 7 7 9 11 11 12 12 10 11 19 19 18 19 20 20 22 21 22 22 22 23 23 26 25 24 25 25 25 22 22 22 22 19 22 22 23 25 25 22 21 20 18 14
8 7 7 7 9 11 11 10 9 11 18 20 19 19 19 19 18 19 20 20 19 18 19 22 23 24 24 23 24 23 20 19 19 19 19 24 23 24 25 25 24 21 19 17 14
7 7 7 7 9 10 10 8 9 16 17 22 22 20 18 20 19 19 19 20 20 20 20 19 20 22 23 22 22 21 21 20 19 20 22 25 22 23 24 23 23 21 19 15 13
6 7 6 7 8 9 8 8 11 15 19 18 21 20 19 20 20 19 19 19 20 20 19 20 20 24 23 22 23 21 20 22 20 21 19 21 23 23 21 20 20 19 17 14 12
5 4 7 8 8 8 7 8 11 15 17 18 17 19 19 19 19 19 19 20 20 21 20 20 19 23 23 23 22 22 23 19 19 17 17 20 21 21 19 17 18 17 15 13 12
4 3 5 7 7 7 8 8 11 14 17 16 16 18 19 20 20 20 20 21 21 21 21 20 20 21 22 20 20 20 20 20 20 19 18 18 19 21 19 19 18 17 16 13 11
3 4 5 6 6 5 7 10 12 13 14 14 15 16 17 19 19 19 19 21 22 22 19 20 20 19 21 21 22 22 21 20 17 17 17 17 18 21 19 20 19 19 18 14 12
4 4 5 5 7 7 9 11 12 13 14 11 13 15 17 17 17 17 17 16 17 20 19 19 17 17 19 20 21 20 21 21 19 18 17 16 18 22 22 21 21 20 19 14 12
3 5 4 5 5 7 9 11 11 14 14 12 12 14 15 15 17 16 13 14 16 15 14 17 18 17 17 19 19 18 19 19 18 15 16 17 18 20 21 19 17 17 17 14 12
2 5 7 6 5 6 10 12 11 12 14 14 9 12 13 13 15 15 14 12 15 14 16 15 15 17 18 18 18 16 16 15 15 14 14 16 17 19 20 17 16 16 17 14 13
3 4 5 7 5 7 9 11 12 13 14 12 10 13 14 13 11 10 11 11 13 15 14 15 13 14 14 16 16 15 12 14 15 15 15 16 18 20 20 20 16 16 17 14 13
2 3 4 7 7 6 8 9 12 14 14 15 13 12 12 13 13 12 10 10 12 12 13 13 12 13 12 14 14 13 14 15 17 18 18 17 19 21 20 20 20 16 17 14 13